Location: St. Louis
(38.6270°N, 90.1994°W)
Time: 23:31:21
(UTC-06:00)

Vanguard 1 - Pass Details

Date: 05 December 2021
Orbit: 652 x 3830 km, 34.2° (Epoch: 21 January)

Event Time Altitude Azimuth Distance (km) Brightness Sun altitude
Rises 03:53:59 0° 279° (W) 7,962 - -36.3°
Reaches altitude 10° 03:59:33 10° 277° (W) 6,926 - -35.2°
Exits shadow 04:14:00 45° 261° (W) 4,234 12.7 -32.4°
Maximum altitude 04:21:52 65° 202° (SSW) 3,260 12.4 -30.9°
Drops below altitude 10° 04:35:45 10° 124° (SE) 4,578 14.2 -28.2°
Sets 04:38:36 0° 121° (ESE) 5,243 14.8 -27.6°
